Terminal Aerodrome Forecast
Issued by NWS

Home | Current Version | Previous Version | Text Only | Print | Product List | Glossary On
Versions: 1 2 3 4 5 6 7 8 9 10 11 12 13
000
FTUS44 KSJT 251731
TAFBBD
TAF
KBBD 251731Z 2518/2618 15006KT P6SM VCTS OVC014CB
     FM252000 14010KT P6SM VCTS OVC050CB
     FM252300 13007KT P6SM VCSH OVC050
     FM260600 13006KT 5SM -RA BR OVC015
      AMD NOT SKED=

USA.gov is the U.S. government's official web portal to all federal, state and local government web resources and services.